This is the latest recevied weather packets stored in our database for station/object KM6YFK-13. If no packets are shown the sender has not sent any weather packets the latest 1 day(s).
| Time | Temp. | Humidity | Pressure | Rain* | Wind** | Luminosity | Snow |
|---|---|---|---|---|---|---|---|
| 1777990112 | 25° C | 55% | 1017 hPa | 0 mm | 0.89 m/s, 111° | 626 W/m² | - |
| 1777989812 | 24.44° C | 55% | 1017 hPa | 0 mm | 0.45 m/s, 137° | 606 W/m² | - |
| 1777989511 | 24.44° C | 56% | 1017 hPa | 0 mm | 0.89 m/s, 148° | 592 W/m² | - |
| 1777989212 | 24.44° C | 58% | 1017 hPa | 0 mm | 0.89 m/s, 88° | 571 W/m² | - |
| 1777988912 | 24.44° C | 58% | 1017 hPa | 0 mm | 0.89 m/s, 136° | 554 W/m² | - |
| 1777988609 | 24.44° C | 59% | 1016.9 hPa | 0 mm | 0.45 m/s, 96° | 535 W/m² | - |
| 1777988309 | 24.44° C | 59% | 1017 hPa | 0 mm | 0.89 m/s, 134° | 515 W/m² | - |
| 1777988010 | 24.44° C | 58% | 1017 hPa | 0 mm | 1.34 m/s, 150° | 501 W/m² | - |
| 1777987712 | 24.44° C | 56% | 1017 hPa | 0 mm | 0.45 m/s, 142° | 484 W/m² | - |
| 1777987412 | 24.44° C | 58% | 1017 hPa | 0 mm | 0.89 m/s, 110° | 466 W/m² | - |
| 1777987110 | 24.44° C | 58% | 1016.9 hPa | 0 mm | 0.45 m/s, 137° | 449 W/m² | - |
| 1777986810 | 24.44° C | 58% | 1016.9 hPa | 0 mm | 0.89 m/s, 96° | 430 W/m² | - |
| 1777986507 | 24.44° C | 58% | 1016.9 hPa | 0 mm | 0.89 m/s, 120° | 410 W/m² | - |
| 1777986209 | 24.44° C | 58% | 1016.9 hPa | 0 mm | 0.89 m/s, 161° | 391 W/m² | - |
| 1777985913 | 24.44° C | 60% | 1016.9 hPa | 0 mm | 0.45 m/s, 130° | 371 W/m² | - |
| 1777985607 | 23.89° C | 63% | 1016.8 hPa | 0 mm | 0.89 m/s, 142° | 354 W/m² | - |
| 1777985311 | 23.89° C | 61% | 1016.7 hPa | 0 mm | 0.89 m/s, 111° | 337 W/m² | - |
| 1777985011 | 23.89° C | 61% | 1016.7 hPa | 0 mm | 0.89 m/s, 143° | 319 W/m² | - |
| 1777984710 | 23.33° C | 63% | 1016.6 hPa | 0 mm | 0.45 m/s, 149° | 300 W/m² | - |
| 1777984410 | 23.33° C | 63% | 1016.7 hPa | 0 mm | 0.45 m/s, 124° | 283 W/m² | - |
| 1777984108 | 23.33° C | 65% | 1016.6 hPa | 0 mm | 0.45 m/s, 90° | 265 W/m² | - |
| 1777983810 | 22.78° C | 67% | 1016.5 hPa | 0 mm | 0.45 m/s, 113° | 248 W/m² | - |
| 1777983510 | 22.22° C | 69% | 1016.4 hPa | 0 mm | 0.89 m/s, 98° | 231 W/m² | - |
| 1777983209 | 21.67° C | 76% | 1016.4 hPa | 0 mm | 0.45 m/s, 141° | 213 W/m² | - |
| 1777982908 | 21.11° C | 84% | 1016.4 hPa | 0 mm | 0.45 m/s, 123° | 196 W/m² | - |
* Rain latest hour (hover to see other rain measurements)
** Current wind speed in m/s (hover to see current wind gust speed)